Theta_e
330 329 328 328 328 328 328 327 327 327 326 326 325 325 325 325 320 315 313 314 314 314 313 313 313 315 317 318 320 325 327 327 326 327 325 323 323 323 323 325 329 329 328
329 330 330 330 330 327 327 326 326 326 325 325 324 322 314 312 311 310 310 310 311 310 310 309 310 313 316 318 320 321 321 322 323 324 324 323 321 318 316 321 323 324 328
330 330 328 327 326 326 325 325 325 324 323 316 311 310 310 308 307 306 305 305 305 305 307 309 311 313 314 314 315 316 316 315 315 315 315 315 316 315 317 320 322 323 323
329 328 327 326 325 325 324 322 313 310 310 310 309 308 307 306 305 304 303 304 306 308 308 306 305 304 306 307 308 309 309 309 309 310 310 311 311 312 314 316 316 318 321
328 326 325 325 321 312 310 310 309 309 308 307 306 305 304 303 303 303 305 307 306 303 302 302 301 301 302 302 301 301 299 300 301 303 304 305 307 307 308 311 312 314 317
328 326 322 311 310 310 309 308 308 306 304 303 303 303 302 302 301 303 300 300 301 300 297 298 299 300 300 296 295 295 295 296 296 297 298 300 302 306 307 310 313 314 315
325 311 310 310 310 310 310 308 304 302 301 301 301 302 301 301 299 299 301 300 299 297 296 295 295 295 295 295 294 294 294 294 295 297 298 302 305 306 307 308 309 310 311
310 310 310 310 311 309 307 303 302 300 298 297 296 297 296 297 299 300 297 297 295 295 294 294 294 294 293 294 293 293 293 293 293 296 299 300 302 303 304 305 306 307 308
310 310 311 311 309 305 302 301 299 297 296 295 293 294 293 293 292 294 294 294 293 293 292 292 292 292 292 292 291 292 292 291 293 296 297 299 300 301 302 303 304 304 305
310 311 311 309 305 302 300 298 297 295 294 293 293 292 292 291 290 291 291 292 292 291 291 291 291 290 290 290 290 290 290 290 292 295 297 298 299 299 300 301 302 303 303
310 310 309 306 303 300 298 296 295 294 293 293 292 292 291 290 290 290 289 289 290 290 290 289 289 289 289 289 289 288 289 291 292 293 295 296 297 298 299 301 301 301 301
310 309 307 304 301 298 296 295 293 293 292 292 292 290 289 289 289 288 287 287 287 287 287 288 289 288 288 288 288 288 288 290 291 292 292 294 295 296 296 296 297 298 299
309 307 305 301 298 296 294 293 292 292 292 291 290 290 289 288 288 287 287 287 286 286 286 287 287 287 287 287 287 287 287 289 289 290 291 292 293 294 294 294 294 295 296
308 306 302 298 295 293 292 292 292 292 291 290 289 289 288 287 287 287 286 285 285 286 286 286 287 286 287 287 287 287 287 287 288 289 290 291 292 292 291 292 292 293 294
306 302 298 295 293 292 292 292 292 291 290 289 289 288 287 287 287 286 286 285 285 286 285 286 286 286 286 286 286 287 287 286 287 288 289 290 289 290 290 291 291 292 293
302 298 295 293 292 291 292 292 290 290 289 289 288 287 287 287 286 286 285 285 285 285 285 285 285 286 286 286 286 286 286 287 287 287 288 288 289 289 289 289 289 290 291
299 295 293 292 292 292 292 290 290 289 288 287 287 287 287 286 286 286 286 285 285 285 285 285 285 285 285 285 285 286 286 286 286 286 287 287 287 287 287 288 289 289 290
295 293 292 292 292 292 290 289 289 288 287 287 287 286 286 286 286 286 285 285 285 285 285 285 286 285 285 285 286 286 286 286 286 286 285 285 285 286 287 287 288 288 288
292 291 291 292 291 290 289 289 288 287 287 286 286 286 286 286 286 285 285 285 285 286 286 285 285 285 285 286 285 286 284 284 283 283 284 284 285 285 286 287 287 287 288
291 291 292 291 290 289 289 288 287 287 286 286 286 286 286 285 285 285 285 285 285 285 285 285 285 285 285 285 284 283 283 283 283 283 283 284 284 284 285 285 285 286 286
291 292 291 290 289 289 288 286 286 286 286 286 286 285 284 284 284 285 285 285 284 285 285 285 285 285 283 283 282 282 283 283 283 283 283 282 282 282 282 283 283 283 284
292 291 290 289 289 288 287 286 285 286 285 285 284 284 283 283 284 284 284 284 285 285 286 286 284 283 282 282 282 283 284 283 282 282 282 282 282 282 282 282 282 283 284
292 291 289 288 288 287 286 285 284 286 284 284 284 284 284 284 284 283 284 284 286 285 284 283 282 282 282 283 284 283 282 282 282 282 282 282 281 281 282 282 283 283 284
291 290 289 288 287 286 285 284 284 284 284 284 284 284 285 284 283 284 285 286 284 283 282 282 282 283 284 283 282 282 282 282 282 281 281 281 281 282 282 283 283 284 284
290 289 288 287 285 285 284 283 283 284 284 284 284 285 284 283 283 285 285 284 283 282 282 283 283 282 281 282 282 282 282 281 281 281 281 280 281 281 281 282 283 283 284
289 288 287 285 284 283 283 283 284 284 284 284 285 284 283 283 284 284 284 283 282 282 283 283 282 282 282 282 282 282 281 280 280 280 281 281 281 281 282 282 283 283 283
Wind_Speed
3 5 6 5 6 6 6 9 10 12 15 18 19 20 20 20 20 19 20 20 21 21 20 21 22 23 23 22 20 19 15 20 19 19 20 21 21 23 25 27 31 33 33
5 5 8 8 8 7 10 12 15 18 19 20 21 21 20 20 22 22 24 24 24 24 24 22 21 20 19 18 19 20 19 20 18 20 21 22 23 25 28 29 29 29 32
7 9 7 6 5 8 11 14 17 20 21 20 20 21 22 23 24 24 24 23 22 21 19 18 17 17 18 18 20 21 22 24 22 23 24 25 26 27 26 27 29 28 29
9 10 10 8 8 9 13 16 16 18 21 23 24 23 22 22 22 20 18 17 15 15 15 17 18 19 21 22 23 24 25 26 28 30 31 30 30 29 28 27 27 26 27
10 9 8 8 7 7 11 15 18 21 23 23 22 21 19 19 17 14 11 12 14 16 19 22 22 22 22 23 25 27 28 30 32 34 35 35 36 34 34 32 34 30 28
10 8 6 5 6 9 13 16 18 19 20 21 21 20 18 15 13 14 15 10 14 22 23 20 22 23 24 29 30 29 30 31 33 34 34 33 32 28 29 25 24 25 27
8 6 4 5 8 12 16 18 18 16 16 19 22 21 13 6 19 13 11 18 20 27 19 26 27 29 31 30 30 29 30 31 30 28 27 25 24 24 25 26 26 27 28
7 5 4 7 11 15 17 17 16 15 15 19 21 19 12 15 5 9 25 16 28 23 30 26 30 29 30 31 30 32 33 32 32 26 23 25 26 27 28 28 29 30 30
7 4 6 10 14 16 16 15 14 15 15 15 17 11 8 6 33 13 27 25 28 32 35 34 33 33 31 33 34 33 33 33 28 27 30 28 28 29 30 31 32 33 33
5 5 8 12 15 15 14 13 13 15 16 18 17 15 14 17 13 18 19 40 34 42 42 40 37 35 37 35 33 33 33 32 32 31 29 27 31 32 32 33 34 35 35
4 6 10 14 15 14 13 12 13 15 17 18 19 21 22 22 19 17 34 39 47 46 46 40 42 39 36 34 34 34 31 31 28 29 29 34 34 33 32 33 35 36 38
4 8 12 14 14 13 12 13 15 16 18 19 20 20 21 20 22 23 34 41 42 46 44 46 39 38 37 36 35 35 35 29 29 31 33 33 33 34 36 37 39 40 40
6 9 12 13 13 13 14 15 17 18 20 21 21 22 21 20 22 26 34 43 43 49 40 34 33 36 35 36 36 37 35 31 33 35 35 35 35 36 37 39 40 41 41
7 10 12 12 12 13 15 17 19 21 22 22 23 23 22 22 26 27 30 34 44 31 39 34 36 36 29 31 31 31 35 36 36 36 36 37 38 39 40 41 41 42 43
9 10 11 12 13 15 17 19 21 22 23 24 24 24 26 27 27 29 29 27 28 34 46 34 29 40 35 36 35 34 37 37 34 36 38 39 42 42 41 41 42 42 42
9 10 12 13 14 17 20 22 22 23 24 24 26 28 28 28 30 31 30 30 27 30 37 48 47 44 40 39 39 36 39 36 38 37 38 37 37 41 44 47 48 48 45
10 11 12 14 16 19 22 23 24 24 25 26 26 27 28 29 31 31 32 33 30 31 36 49 48 49 53 48 46 43 40 38 41 38 34 39 49 49 45 42 43 43 45
10 11 13 16 19 21 22 24 25 25 26 27 27 28 29 30 31 33 36 34 34 34 35 40 47 55 52 51 51 45 40 34 35 38 50 45 41 41 41 41 38 39 41
10 12 15 18 20 21 23 24 26 26 26 27 28 29 30 30 33 35 34 35 35 34 35 38 47 47 50 47 47 41 42 42 39 39 40 38 38 36 35 37 40 43 42
11 14 17 18 20 22 24 25 25 26 27 28 29 28 30 31 33 31 32 32 35 39 42 43 43 44 42 39 42 44 47 40 46 44 40 37 36 42 46 44 41 40 40
13 16 17 19 21 23 25 26 26 27 28 29 30 31 31 29 27 26 30 37 36 38 41 41 44 34 43 40 44 43 44 46 44 38 42 49 42 41 44 41 39 38 37
14 16 19 21 23 25 26 27 25 27 29 30 31 30 29 28 30 31 31 31 30 35 42 33 47 43 45 43 46 45 42 42 50 42 34 51 44 45 46 43 39 36 36
15 18 20 23 25 26 27 26 25 26 29 29 30 30 29 31 34 35 37 34 35 29 35 36 42 41 44 46 43 46 47 43 46 49 40 47 44 45 45 42 38 37 37
17 19 22 24 26 27 27 26 26 28 29 29 30 29 31 34 32 35 37 35 42 43 42 37 34 39 40 43 43 41 43 45 46 44 34 40 46 48 45 44 40 37 35
18 21 23 25 27 26 26 27 27 28 29 32 32 32 29 31 36 34 35 41 41 44 34 36 32 37 38 32 31 34 40 40 44 43 41 37 43 44 45 47 39 34 29
20 23 24 24 25 25 26 26 23 26 30 33 35 33 33 34 33 32 36 38 40 36 39 37 43 36 32 33 32 31 34 38 40 45 39 36 43 40 32 37 33 40 38
Wind_Direction
242 260 272 261 286 318 309 305 307 300 300 301 300 295 297 296 295 295 295 294 292 292 292 292 291 288 289 290 285 280 290 286 287 282 279 279 282 282 279 277 269 265 263
228 254 270 277 297 299 300 300 298 299 298 293 294 293 294 295 294 292 291 289 289 290 291 290 290 287 282 284 277 275 280 283 284 279 280 280 280 284 286 280 277 275 268
270 292 285 283 285 285 297 298 297 294 294 294 293 293 293 292 290 289 288 288 288 290 291 291 287 285 284 284 280 277 277 277 279 282 281 283 285 285 286 283 276 275 274
269 274 270 274 276 278 287 291 296 295 295 295 295 295 297 295 292 288 284 283 284 287 291 293 292 291 288 286 283 283 283 285 283 281 282 282 280 279 278 280 280 281 278
270 270 256 272 292 301 298 299 301 299 298 299 302 305 305 298 290 279 278 280 284 292 297 295 292 292 288 287 289 289 288 283 280 279 279 280 281 283 281 281 277 279 279
272 254 259 273 299 307 307 305 308 311 311 312 314 314 313 297 277 267 282 287 293 298 304 297 295 289 290 297 296 293 290 286 284 283 282 285 286 290 287 289 287 284 282
242 221 247 291 312 313 318 320 320 319 318 321 326 325 331 281 293 271 261 293 295 304 296 303 297 294 294 293 295 292 288 286 287 292 297 301 299 298 293 291 290 284 279
197 222 280 313 324 327 325 324 327 332 337 337 343 343 335 332 209 285 290 284 306 305 309 306 306 303 302 300 299 297 294 292 292 301 305 301 298 295 294 290 286 282 280
204 246 302 322 328 329 329 330 330 333 339 343 346 353 335 309 316 315 308 304 310 311 315 315 313 311 309 307 305 300 296 297 301 304 302 300 296 294 291 289 287 284 280
218 285 316 326 331 332 331 330 333 334 336 336 338 330 322 311 314 311 305 310 314 314 317 318 315 314 312 309 306 304 303 301 302 303 301 297 295 295 291 288 286 284 281
246 304 324 328 330 330 330 329 330 330 331 330 330 328 325 322 320 293 306 310 312 315 316 316 315 313 314 311 308 307 307 305 301 301 297 297 297 294 292 286 285 283 279
284 314 320 324 326 327 327 326 328 328 326 325 324 324 323 322 314 314 308 308 310 314 311 311 312 314 312 310 309 307 307 302 301 298 298 294 294 289 289 286 284 282 278
297 310 317 323 323 322 323 323 323 323 323 323 322 321 319 315 310 309 310 312 311 312 315 309 312 313 312 311 309 309 307 301 300 298 296 294 292 290 289 286 285 281 277
296 310 318 320 318 318 318 320 321 321 320 320 319 318 316 314 312 314 317 318 316 310 311 310 317 314 312 305 301 301 299 304 301 298 296 294 291 290 289 287 284 279 276
308 315 316 316 316 317 319 320 319 319 319 319 318 317 316 317 317 319 320 320 315 309 311 312 310 312 311 310 308 304 298 298 295 294 293 290 290 289 287 284 283 281 276
310 311 312 311 313 317 318 318 319 320 319 319 318 316 316 318 319 321 324 322 314 307 299 307 311 313 312 309 305 303 304 298 297 292 290 288 287 289 286 283 282 278 276
307 307 307 309 313 316 317 318 319 321 320 319 318 316 317 319 320 323 323 323 316 315 300 308 314 315 312 311 310 308 302 298 295 291 286 292 292 289 285 282 281 279 276
306 306 309 313 316 316 317 319 321 321 320 320 320 318 318 321 320 321 323 322 318 315 307 297 306 308 311 315 312 307 305 300 294 289 294 292 292 289 284 284 283 282 278
306 309 312 315 317 319 320 321 321 321 320 320 320 319 319 319 318 321 322 320 318 310 306 301 299 303 307 308 309 303 308 308 300 298 297 294 291 289 287 286 285 284 281
307 312 316 318 319 321 322 321 322 322 320 318 317 316 316 317 319 322 318 314 311 310 307 305 300 301 301 306 313 310 308 307 308 306 303 295 292 291 289 287 284 281 278
311 315 317 319 321 322 325 326 324 321 318 317 317 318 320 321 317 316 316 311 310 308 308 304 299 307 314 313 311 311 305 305 302 306 300 295 296 294 292 292 289 285 280
314 318 320 322 324 325 325 323 323 321 318 320 324 326 326 327 327 319 316 313 311 308 302 314 313 310 310 310 312 307 305 308 303 307 303 300 300 297 301 300 296 285 282
318 321 322 324 326 326 325 325 323 320 321 326 330 330 327 326 326 325 326 313 316 313 312 311 309 309 308 309 311 308 307 303 299 302 303 297 304 300 308 308 299 289 284
322 323 324 325 325 326 325 325 325 322 324 329 332 330 327 326 326 324 316 318 317 314 315 316 309 308 309 308 306 302 304 304 302 303 302 293 306 305 312 310 307 302 291
324 324 325 325 324 325 326 327 327 326 329 330 329 328 328 323 323 320 319 320 317 314 322 322 311 308 310 309 309 309 308 310 305 306 310 300 305 302 306 309 309 308 299
323 325 325 324 326 325 327 331 330 329 327 329 326 330 323 324 322 322 320 319 313 321 327 316 315 316 325 330 325 321 318 309 305 306 314 304 306 307 304 301 304 308 307